{"data":{"norad_id":58773,"intl_designator":"2024-011J","name":"STARLINK-31073","alt_names":[],"object_type":"PAYLOAD","status":"ACTIVE","operator":null,"country":"US","launch_date":"2024-01-14","launch_site_code":"AFWTR","launch_vehicle":null,"mission":null,"orbit_class":"UNKNOWN","rcs_meters":null,"size_class":null,"mass_kg":null,"dimensions":null,"purposes":["comms"],"wikipedia_slug":null,"has_3d_model":false,"image_url":null,"decayed_at":null,"tle_current":{"epoch":"2026-05-25T01:42:08.313120Z","epoch_age_seconds":64935,"freshness":"FRESH","line1":"1 58773U 24011J   26145.07092955  .00001570  00000+0  65102-4 0  9993","line2":"2 58773  53.1592  18.9585 0000865  91.3774 268.7326 15.30203792131969","mean_motion":15.30203792,"eccentricity":8.65e-5,"inclination_deg":53.1592,"raan_deg":18.9585,"arg_perigee_deg":91.3774,"mean_anomaly_deg":268.7326,"bstar":6.5102e-5,"rev_number":13196,"period_min":94.105112503864,"perigee_km":474.61093323958,"apogee_km":475.79656118885,"semimajor_km":6853.3407472142,"source":"CELESTRAK","updated_at":"2026-05-25T13:38:18.745619Z"}}}